[[{"header":{"parameterUnit":"m.s-1","parameterCategory":1,"la1":30.2991,"la2":30.254,"lo1":-89.0895,"lo2":-89.0444,"dx":0.0017,"dy":0.0017,"nx":28,"ny":28,"refTime":"2023-01-12T15:00:00:Z","depth":0,"parameterNumber":2,"parameterNumberName":"U-component_of_WINDS"},"data":[0,0,0,0,0,0,0,0,0,0,0,0,0,0,0,0,0,0,0,0,0,0,0,0,0,0,0,0,0,0,0,0,0,0,0,0,0,0,0,0,0,0,0,0,0,0,0,0,0,0,0,0,0,0,0,0,0,0,4.3826,4.3827,0,4.3898,4.3898,4.3899,4.3866,4.3864,4.3862,4.386,4.3932,4.3935,4.3939,0,0,0,0,0,0,0,0,0,0,0,0,0,4.366,4.3663,4.3826,4.3827,4.3828,4.3897,4.3898,4.3899,4.3866,4.3864,4.3862,4.386,4.3931,4.3935,4.3939,0,0,0,0,0,0,0,0,0,0,0,0,0,4.3732,4.3664,4.3826,4.382,4.382,4.3897,4.3898,4.39,4.3867,4.3864,4.3861,4.3859,4.3929,4.3934,4.394,4.4027,0,0,4.3956,4.3958,0,0,0,0,0,0,0,0,4.3728,4.3738,4.382,4.382,4.382,4.387,4.3866,4.3942,4.3867,4.3849,4.386,4.3857,4.3913,4.392,4.3939,4.403,4.4033,4.3956,4.396,4.3962,4.3964,0,0,0,0,0,0,0,4.3723,4.3735,4.3854,4.3821,4.3821,4.3813,4.382,4.388,4.3895,4.385,4.3848,4.3857,4.3913,4.3934,4.394,4.4034,4.3956,4.3961,4.3964,4.3966,4.4202,4.4205,0,0,0,0,0,0,4.3718,4.3731,4.3852,4.3856,4.3767,4.3818,4.3826,4.3857,4.3894,4.3898,4.3859,4.3855,4.3926,4.3934,4.3943,4.4048,4.3962,4.3967,4.397,4.4199,4.4203,4.4206,0,0,0,0,0,0,4.3715,4.3729,4.3849,4.3793,4.3808,4.3824,4.3858,4.386,4.3881,4.3901,4.3904,4.3878,4.3924,4.3935,4.4007,4.405,4.3969,4.3974,4.4195,4.42,4.4204,4.4259,0,0,0,0,0,0,4.371,4.3728,4.3761,4.3794,4.3811,4.3912,4.3861,4.3863,4.389,4.3886,4.3919,4.3922,4.3923,4.3999,4.4012,4.4056,4.3978,4.4191,4.4197,4.4203,4.4253,4.4265,4.4274,0,0,0,0,0,4.3704,4.3773,4.3763,4.3778,4.3853,4.3914,4.3924,4.3924,4.3894,4.3927,4.3941,4.3921,4.4044,4.4006,4.4021,4.4067,4.4189,4.4196,4.4202,4.4248,4.4262,4.4274,0,0,0,0,0,0,4.3744,4.3777,4.3767,4.3848,4.3879,4.3909,4.3951,4.3938,4.3977,4.3971,4.3969,4.3977,4.4051,4.4066,4.4024,4.4154,4.4111,4.4122,4.4141,4.4155,4.4165,4.416,4.3983,0,0,0,0,0,4.3762,4.381,4.3836,4.3906,4.3922,4.3934,4.3961,4.3958,4.399,4.4002,4.4021,4.4052,4.4097,4.4127,4.417,4.4256,4.4263,4.4295,4.4305,4.4314,4.4323,4.437,4.4385,4.4228,4.4228,4.4228,0,0,4.38,4.3824,4.3854,4.3914,4.3938,4.3987,4.3945,4.3999,4.4035,4.401,4.4079,4.4094,4.4129,4.4208,4.4244,4.4223,4.4368,4.4323,4.433,4.4333,4.4379,4.4394,4.4407,4.4233,4.4232,4.4231,0,0,4.3894,4.3918,4.3979,4.4004,4.4041,4.4049,4.4063,4.4096,4.4105,4.4175,4.4157,4.4201,4.4279,4.4305,4.4328,4.4435,4.4419,4.4449,4.4505,4.4551,4.4563,4.4574,4.4613,4.4627,4.4458,4.4458,4.4458,0,4.3937,4.4011,4.4011,4.4067,4.4094,4.4076,4.4137,4.4162,4.421,4.4229,4.4206,4.4305,4.4326,4.4412,4.4439,4.4458,4.4475,4.4445,4.4562,4.4573,4.4583,4.462,4.4634,4.4462,4.4461,4.4461,4.446,0,4.4061,4.4113,4.4158,4.4207,4.424,4.4298,4.4307,4.434,4.4336,4.4346,4.4418,4.4444,4.4492,4.4513,4.4508,4.4599,4.4585,4.4562,4.4518,4.4601,4.4636,4.465,4.4466,4.4465,4.4464,4.4463,0,0,4.418,4.4231,4.4247,4.427,4.431,4.435,4.4409,4.4457,4.4486,4.4521,4.457,4.4638,4.4617,4.4644,4.4642,4.4683,4.4767,4.4655,4.4656,4.4675,4.4869,4.4886,4.4902,4.4758,4.476,4.4762,4.4866,0,4.4278,4.4381,4.4384,4.4477,4.4526,4.451,4.4561,4.4592,4.4604,4.4647,4.466,4.4708,4.4678,4.4694,4.4734,4.4749,4.4806,4.4741,4.4803,4.4805,4.4794,4.492,4.4937,4.5034,4.488,4.4882,4.4884,0,4.4405,4.4445,4.4544,4.458,4.46,4.4646,4.4691,4.4733,4.4767,4.4774,4.4805,4.4798,4.4858,4.4814,4.4897,4.4853,4.4878,4.489,4.4894,4.4898,4.4849,4.4928,4.5065,4.5079,4.4905,4.4903,4.4902,0,4.4482,4.4561,4.4631,4.4651,4.4694,4.4727,4.4746,4.4778,4.4808,4.4848,4.4867,4.4913,4.4938,4.4974,4.498,4.4948,4.5064,4.502,4.507,4.507,4.5094,4.5093,4.5237,4.5112,4.5112,4.5112,4.5111,0,4.459,4.4651,4.4667,4.4709,4.4778,4.4781,4.4849,4.4866,4.4895,4.4941,4.4931,4.4974,4.4979,4.5025,4.503,4.5098,4.5109,4.5116,4.5116,4.5116,4.5116,4.5132,4.5125,4.5115,4.5115,4.5114,4.5113,0,4.4687,4.47,4.4775,4.481,4.4821,4.487,4.49,4.4941,4.4953,4.5012,4.5026,4.5044,4.5097,4.5107,4.5169,4.5172,4.5254,4.5248,4.5242,4.5241,4.5291,4.5286,4.545,4.5472,4.5334,4.5335,4.5336,0,4.4754,4.4801,4.4843,4.4873,4.4895,4.4944,4.4974,4.498,4.5013,4.5057,4.5094,4.5145,4.5187,4.5272,4.5291,4.5338,4.5333,4.5388,4.534,4.5339,4.5334,4.5331,4.5336,4.5396,4.5398,4.5399,4.54,0,4.4873,4.4878,4.4923,4.4971,4.5009,4.5046,4.5082,4.5108,4.5119,4.5156,4.521,4.5243,4.5307,4.5359,4.5407,4.5427,4.5415,4.5415,4.5429,4.5429,4.5424,4.5428,4.5266,4.5411,4.541,4.5409,4.5408,4.5408,4.4957,4.4999,4.5035,4.5086,4.5114,4.5149,4.519,4.5208,4.5254,4.5307,4.5308,4.5367,4.5403,4.5466,4.5489,4.5536,4.5519,4.5539,4.5544,4.5549,4.5554,4.5418,4.5545,4.5545,4.5544,4.5544,4.5544,0,4.5076,4.5099,4.5146,4.5197,4.5238,4.5226,4.5265,4.53,4.5353,4.5387,4.5429,4.5492,4.5543,4.5567,4.5617,4.565,4.5646,4.5663,4.566,4.5665,4.5566,4.5549,4.5665,4.5665,4.5665,4.5665,4.5665,4.5665,4.5142,4.5212,4.5221,4.5306,4.5328,4.5387,4.5411,4.5443,4.547,4.5542,4.5584,4.56,4.5631,4.5683,4.573,4.5735,4.5754,4.5773,4.5777,4.5684,4.5672,4.566,4.5643,4.5778,4.5778,4.5871,4.5872,4.5873]},{"header":{"parameterUnit":"m.s-1","parameterCategory":1,"la1":30.2991,"la2":30.254,"lo1":-89.0895,"lo2":-89.0444,"dx":0.0017,"dy":0.0017,"nx":28,"ny":28,"refTime":"2023-01-12T15:00:00:Z","depth":0,"parameterNumber":3,"parameterNumberName":"V-component_of_WINDS"},"data":[0,0,0,0,0,0,0,0,0,0,0,0,0,0,0,0,0,0,0,0,0,0,0,0,0,0,0,0,0,0,0,0,0,0,0,0,0,0,0,0,0,0,0,0,0,0,0,0,0,0,0,0,0,0,0,0,0,0,-8.5698,-8.57,0,-8.5869,-8.5871,-8.5873,-8.5814,-8.581,-8.5807,-8.5803,-8.5973,-8.598,-8.5988,0,0,0,0,0,0,0,0,0,0,0,0,0,-8.5319,-8.5326,-8.5698,-8.57,-8.5702,-8.5868,-8.5871,-8.5873,-8.5815,-8.581,-8.5806,-8.5801,-8.597,-8.598,-8.5989,0,0,0,0,0,0,0,0,0,0,0,0,0,-8.5486,-8.5328,-8.5698,-8.5693,-8.5695,-8.5868,-8.5871,-8.5874,-8.5816,-8.581,-8.5804,-8.5799,-8.5967,-8.5979,-8.599,-8.6177,0,0,-8.6027,-8.6032,0,0,0,0,0,0,0,0,-8.5476,-8.55,-8.5692,-8.5694,-8.5696,-8.5815,-8.5799,-8.5975,-8.5817,-8.577,-8.5803,-8.5797,-8.5924,-8.5939,-8.5984,-8.6185,-8.6192,-8.6028,-8.6035,-8.6041,-8.6044,0,0,0,0,0,0,0,-8.5465,-8.5492,-8.5765,-8.5695,-8.5697,-8.5682,-8.5699,-8.5832,-8.5876,-8.5773,-8.577,-8.5791,-8.5924,-8.5972,-8.5987,-8.6194,-8.6028,-8.6038,-8.6046,-8.6051,-8.6558,-8.6564,0,0,0,0,0,0,-8.5453,-8.5483,-8.576,-8.577,-8.557,-8.5693,-8.5713,-8.5782,-8.5875,-8.5883,-8.5795,-8.5787,-8.5954,-8.5973,-8.5993,-8.6218,-8.604,-8.6052,-8.6059,-8.6552,-8.656,-8.6567,0,0,0,0,0,0,-8.5445,-8.5478,-8.5753,-8.5626,-8.566,-8.5706,-8.5784,-8.5788,-8.5836,-8.5891,-8.5898,-8.5837,-8.5951,-8.5976,-8.6132,-8.6223,-8.6057,-8.6068,-8.6545,-8.6555,-8.6563,-8.667,0,0,0,0,0,0,-8.5434,-8.5475,-8.5547,-8.5628,-8.5667,-8.5891,-8.5789,-8.5796,-8.5858,-8.5849,-8.5932,-8.594,-8.5948,-8.6115,-8.6144,-8.6237,-8.6077,-8.6537,-8.6549,-8.656,-8.6658,-8.6682,-8.6702,0,0,0,0,0,-8.5421,-8.5569,-8.5551,-8.5585,-8.5758,-8.5896,-8.5918,-8.5926,-8.5865,-8.5938,-8.5973,-8.5937,-8.6209,-8.6131,-8.6164,-8.6261,-8.6531,-8.6546,-8.6559,-8.6649,-8.6677,-8.6701,0,0,0,0,0,0,-8.5495,-8.5579,-8.5561,-8.5739,-8.5812,-8.5886,-8.5977,-8.5956,-8.6045,-8.6033,-8.6037,-8.6057,-8.6218,-8.6255,-8.6167,-8.6447,-8.6361,-8.6382,-8.6417,-8.6445,-8.6466,-8.6454,-8.6087,0,0,0,0,0,-8.5533,-8.564,-8.5707,-8.5858,-8.5896,-8.5931,-8.5991,-8.5992,-8.6066,-8.6095,-8.6142,-8.6214,-8.6316,-8.6382,-8.6478,-8.6664,-8.6681,-8.6747,-8.6769,-8.6786,-8.6804,-8.6906,-8.6937,-8.6613,-8.6613,-8.6613,0,0,-8.5611,-8.567,-8.5737,-8.5875,-8.5931,-8.6041,-8.5957,-8.6076,-8.6157,-8.6112,-8.6264,-8.6301,-8.6382,-8.6554,-8.6632,-8.659,-8.6898,-8.6804,-8.6818,-8.6827,-8.6924,-8.6955,-8.6982,-8.6623,-8.6621,-8.6619,0,0,-8.581,-8.5866,-8.5999,-8.6057,-8.6144,-8.6167,-8.6199,-8.6278,-8.6301,-8.6454,-8.6423,-8.6519,-8.6694,-8.6753,-8.6806,-8.7031,-8.7001,-8.7062,-8.7175,-8.7274,-8.73,-8.7322,-8.7403,-8.7432,-8.708,-8.708,-8.708,0,-8.5896,-8.6062,-8.6069,-8.6193,-8.6254,-8.6222,-8.6356,-8.6412,-8.6525,-8.6568,-8.652,-8.674,-8.6792,-8.6978,-8.7033,-8.7077,-8.7113,-8.7052,-8.7296,-8.7318,-8.734,-8.7417,-8.7447,-8.7087,-8.7086,-8.7085,-8.7085,0,-8.6163,-8.6279,-8.6376,-8.6489,-8.6561,-8.6689,-8.6716,-8.6788,-8.6783,-8.6811,-8.6967,-8.7028,-8.7137,-8.7181,-8.7176,-8.7368,-8.7339,-8.7294,-8.7206,-8.7377,-8.745,-8.7479,-8.7097,-8.7094,-8.7092,-8.709,0,0,-8.6412,-8.653,-8.6566,-8.6617,-8.6711,-8.68,-8.6927,-8.7036,-8.7099,-8.7178,-8.7284,-8.7434,-8.7394,-8.7454,-8.7455,-8.7542,-8.7718,-8.7486,-8.7488,-8.7527,-8.7934,-8.7968,-8.8002,-8.7699,-8.7705,-8.7709,-8.7927,0,-8.662,-8.6845,-8.6857,-8.706,-8.7168,-8.7139,-8.725,-8.7319,-8.7349,-8.7444,-8.7475,-8.7582,-8.752,-8.7556,-8.7642,-8.7678,-8.7799,-8.7663,-8.7797,-8.7802,-8.7779,-8.804,-8.8076,-8.8278,-8.7955,-8.796,-8.7964,0,-8.6891,-8.6982,-8.7197,-8.7279,-8.7324,-8.7423,-8.7525,-8.7616,-8.7694,-8.771,-8.7779,-8.7768,-8.7898,-8.7807,-8.7985,-8.7893,-8.7948,-8.7975,-8.7983,-8.7996,-8.7893,-8.806,-8.8343,-8.8374,-8.8008,-8.8005,-8.8001,0,-8.7052,-8.7228,-8.738,-8.7425,-8.7523,-8.7594,-8.7638,-8.7711,-8.7777,-8.7865,-8.7908,-8.8009,-8.8065,-8.8144,-8.816,-8.8093,-8.834,-8.825,-8.8356,-8.8356,-8.8408,-8.8405,-8.8705,-8.8445,-8.8444,-8.8443,-8.8443,0,-8.7283,-8.7416,-8.7455,-8.7548,-8.7697,-8.7709,-8.7855,-8.7894,-8.796,-8.806,-8.804,-8.8134,-8.8151,-8.8249,-8.8263,-8.8409,-8.8434,-8.845,-8.8452,-8.8452,-8.845,-8.8488,-8.8475,-8.8452,-8.845,-8.8448,-8.8447,0,-8.7488,-8.7519,-8.7683,-8.7764,-8.7787,-8.7893,-8.7961,-8.8051,-8.8079,-8.8207,-8.8237,-8.8281,-8.8395,-8.8421,-8.8555,-8.8564,-8.8739,-8.8726,-8.8713,-8.8712,-8.8817,-8.8807,-8.9152,-8.9198,-8.8907,-8.891,-8.8912,0,-8.7632,-8.7735,-8.7827,-8.7894,-8.7942,-8.805,-8.8117,-8.8133,-8.8204,-8.8303,-8.838,-8.8493,-8.8584,-8.8768,-8.8811,-8.8914,-8.8905,-8.9019,-8.892,-8.8917,-8.8907,-8.8901,-8.8912,-8.9037,-8.9041,-8.9043,-8.9045,0,-8.7887,-8.7898,-8.7997,-8.8103,-8.8185,-8.8268,-8.8347,-8.8402,-8.8429,-8.851,-8.8628,-8.8699,-8.8838,-8.895,-8.9054,-8.9098,-8.9077,-8.9076,-8.9106,-8.9107,-8.9096,-8.9104,-8.8765,-8.9068,-8.9066,-8.9064,-8.9063,-8.9062,-8.8067,-8.8157,-8.8237,-8.8348,-8.841,-8.8486,-8.8574,-8.8615,-8.8714,-8.8831,-8.8834,-8.8963,-8.9039,-8.9178,-8.9228,-8.9328,-8.9292,-8.9336,-8.9347,-8.9357,-8.9368,-8.908,-8.9347,-8.9346,-8.9346,-8.9345,-8.9345,0,-8.832,-8.8371,-8.8474,-8.8587,-8.8675,-8.8649,-8.8736,-8.8811,-8.8925,-8.9,-8.9091,-8.9227,-8.9336,-8.9389,-8.9497,-8.9567,-8.956,-8.9595,-8.959,-8.9601,-8.9393,-8.9356,-8.9599,-8.9599,-8.9599,-8.9599,-8.9599,-8.9599,-8.8463,-8.8615,-8.8636,-8.8819,-8.8868,-8.8996,-8.9048,-8.9117,-8.9177,-8.9331,-8.9422,-8.9457,-8.9523,-8.9636,-8.9735,-8.9748,-8.9788,-8.9828,-8.9836,-8.9641,-8.9615,-8.959,-8.9556,-8.9837,-8.9837,-9.0035,-9.0037,-9.0039]}]]